Llano, TX

5:08 AM CST on January 23, 2017 (GMT -0600)
Llano

Weather History for KAQO - November, 2012

Change the Weather History Date:

Friday, November 9, 2012

  Actual Average (KBMQ) Record (KBMQ)
Temperature  
Mean Temperature 75 °F -  
Max Temperature 84 °F 65 °F 88 °F (2002)
Min Temperature 66 °F 48 °F 32 °F (2000)
Cooling Degree Days 10    
Growing Degree Days 25 (Base 50)    
Moisture  
Dew Point 58 °F    
Average Humidity 61    
Maximum Humidity 83    
Minimum Humidity 35    
Precipitation  
Precipitation 0.00 in - - ()
Sea Level Pressure  
Sea Level Pressure 30.04 in    
Wind  
Wind Speed 10 mph (South)    
Max Wind Speed 20 mph    
Max Gust Speed 26 mph    
Visibility 10 miles    
Events      
Averages and records for this station are not official NWS values.
T = Trace of Precipitation, MM = Missing Value Source: NWS Daily Summary

Daily Weather History Graph

Daily Weather History Graph

Search for Another Location

Airport or City:

Trip Planner

Search our weather history database for the weather conditions in past years. The results will help you decide how hot, cold, wet, or windy it might be!

Date:

Astronomy

Nov. 09, 2012 Rise Set
Actual Time 6:56 AM CST 5:40 PM CST
Civil Twilight 6:31 AM CST 6:05 PM CST
Nautical Twilight 6:02 AM CST 6:34 PM CST
Astronomical Twilight 5:33 AM CST 7:02 PM CST
Moon 2:15 AM CST (11/9) 2:38 PM CST (11/9)
Length of Visible Light 11h 34m
Length of Day
10h 43m
Waning Crescent, 23% of the Moon is Illuminated
Nov 9
Waning Crescent
Nov 13
New
Nov 20
First Quarter
Nov 28
Full
Dec 6
Last Quarter

Hourly Weather History & Observations

Time (CST) Temp. Heat Index Dew Point Humidity Pressure Visibility Wind Dir Wind Speed Gust Speed Precip Events Conditions
12:15 AM 69.8 °F - 62.6 °F 78% 30.07 in 10.0 mi SSE 8.1 mph - N/A   Overcast
12:35 AM 69.8 °F - 62.6 °F 78% 30.07 in 10.0 mi SSE 4.6 mph - N/A   Overcast
12:55 AM 69.8 °F - 62.6 °F 78% 30.06 in 10.0 mi SSE 5.8 mph - N/A   Overcast
1:15 AM 69.8 °F - 62.6 °F 78% 30.06 in 10.0 mi South 6.9 mph - N/A   Overcast
1:35 AM 69.8 °F - 60.8 °F 73% 30.06 in 10.0 mi SSW 15.0 mph 19.6 mph N/A   Mostly Cloudy
1:55 AM 69.8 °F - 60.8 °F 73% 30.06 in 10.0 mi South 9.2 mph 20.7 mph N/A   Mostly Cloudy
2:15 AM 68.0 °F - 60.8 °F 78% 30.06 in 10.0 mi South 9.2 mph - N/A   Mostly Cloudy
2:35 AM 66.2 °F - 60.8 °F 83% 30.06 in 10.0 mi SSW 9.2 mph - N/A   Partly Cloudy
2:55 AM 66.2 °F - 60.8 °F 83% 30.06 in 10.0 mi South 6.9 mph - N/A   Clear
3:15 AM 66.2 °F - 59.0 °F 78% 30.06 in 10.0 mi South 6.9 mph - N/A   Clear
3:35 AM 66.2 °F - 59.0 °F 78% 30.06 in 10.0 mi South 11.5 mph 16.1 mph N/A   Clear
3:55 AM 68.0 °F - 60.8 °F 78% 30.05 in 10.0 mi South 10.4 mph 16.1 mph N/A   Partly Cloudy
4:15 AM 66.2 °F - 60.8 °F 83% 30.05 in 10.0 mi South 8.1 mph - N/A   Partly Cloudy
4:35 AM 66.2 °F - 60.8 °F 83% 30.05 in 10.0 mi South 8.1 mph - N/A   Clear
4:55 AM 66.2 °F - 60.8 °F 83% 30.05 in 10.0 mi South 12.7 mph - N/A   Scattered Clouds
5:15 AM 68.0 °F - 60.8 °F 78% 30.06 in 10.0 mi South 9.2 mph - N/A   Mostly Cloudy
5:35 AM 68.0 °F - 60.8 °F 78% 30.05 in 10.0 mi South 8.1 mph - N/A   Overcast
5:55 AM 66.2 °F - 60.8 °F 83% 30.05 in 10.0 mi South 8.1 mph - N/A   Scattered Clouds
6:15 AM 66.2 °F - 60.8 °F 83% 30.05 in 10.0 mi South 6.9 mph - N/A   Scattered Clouds
6:35 AM 66.2 °F - 60.8 °F 83% 30.06 in 10.0 mi South 6.9 mph - N/A   Scattered Clouds
6:55 AM 66.2 °F - 60.8 °F 83% 30.06 in 10.0 mi South 4.6 mph - N/A   Mostly Cloudy
7:15 AM 66.2 °F - 60.8 °F 83% 30.06 in 10.0 mi South 6.9 mph - N/A   Overcast
7:35 AM 68.0 °F - 60.8 °F 78% 30.07 in 10.0 mi South 10.4 mph - N/A   Overcast
7:55 AM 69.8 °F - 60.8 °F 73% 30.07 in 10.0 mi South 8.1 mph - N/A   Overcast
8:15 AM 69.8 °F - 60.8 °F 73% 30.07 in 10.0 mi SSW 11.5 mph 18.4 mph N/A   Mostly Cloudy
8:35 AM 71.6 °F - 59.0 °F 64% 30.08 in 10.0 mi South 12.7 mph 18.4 mph N/A   Scattered Clouds
8:55 AM 71.6 °F - 59.0 °F 64% 30.08 in 10.0 mi South 13.8 mph 20.7 mph N/A   Clear
9:15 AM 73.4 °F - 59.0 °F 61% 30.09 in 10.0 mi South 10.4 mph 19.6 mph N/A   Partly Cloudy
9:35 AM 75.2 °F - 59.0 °F 57% 30.09 in 10.0 mi SSW 18.4 mph - N/A   Partly Cloudy
9:55 AM 75.2 °F - 59.0 °F 57% 30.09 in 10.0 mi SSW 18.4 mph 21.9 mph N/A   Clear
10:15 AM 77.0 °F - 59.0 °F 54% 30.09 in 10.0 mi South 15.0 mph 21.9 mph N/A   Clear
10:35 AM 78.8 °F - 59.0 °F 51% 30.08 in 7.0 mi South 12.7 mph 21.9 mph N/A   Partly Cloudy
10:55 AM 78.8 °F - 57.2 °F 47% 30.08 in 10.0 mi South 12.7 mph 23.0 mph N/A   Clear
11:15 AM 78.8 °F - 57.2 °F 47% 30.07 in 10.0 mi South 15.0 mph 24.2 mph N/A   Clear
11:35 AM 80.6 °F 80.5 °F 55.4 °F 42% 30.07 in 10.0 mi SSW 17.3 mph 25.3 mph N/A   Clear
11:55 AM 80.6 °F 80.5 °F 55.4 °F 42% 30.06 in 10.0 mi SSW 16.1 mph 19.6 mph N/A   Clear
12:15 PM 82.4 °F 81.7 °F 55.4 °F 39% 30.04 in 10.0 mi SSW 19.6 mph 24.2 mph N/A   Clear
12:35 PM 82.4 °F 81.4 °F 53.6 °F 37% 30.03 in 10.0 mi South 13.8 mph 25.3 mph N/A   Clear
12:55 PM 82.4 °F 81.4 °F 53.6 °F 37% 30.02 in 10.0 mi SSW 16.1 mph 26.5 mph N/A   Clear
1:15 PM 82.4 °F 81.4 °F 53.6 °F 37% 30.01 in 10.0 mi South 15.0 mph 23.0 mph N/A   Clear
1:35 PM 82.4 °F 81.4 °F 53.6 °F 37% 29.99 in 10.0 mi SSW 17.3 mph 24.2 mph N/A   Clear
1:55 PM 82.4 °F 81.4 °F 53.6 °F 37% 29.99 in 10.0 mi South 13.8 mph - N/A   Clear
2:15 PM 82.4 °F 81.4 °F 53.6 °F 37% 29.99 in 10.0 mi South 18.4 mph 24.2 mph N/A   Clear
2:35 PM 84.2 °F 82.8 °F 53.6 °F 35% 29.98 in 10.0 mi SSW 18.4 mph 24.2 mph N/A   Clear
2:55 PM 82.4 °F 81.7 °F 55.4 °F 39% 29.98 in 10.0 mi SSW 18.4 mph 21.9 mph N/A   Clear
3:15 PM 82.4 °F 81.7 °F 55.4 °F 39% 29.98 in 10.0 mi SSW 17.3 mph - N/A   Clear
3:55 PM 82.4 °F 81.7 °F 55.4 °F 39% 29.98 in 10.0 mi South 12.7 mph 20.7 mph N/A   Clear
4:15 PM 82.4 °F 81.4 °F 53.6 °F 37% 29.97 in 10.0 mi South 15.0 mph 21.9 mph N/A   Clear
4:35 PM 80.6 °F 80.5 °F 55.4 °F 42% 29.98 in 10.0 mi South 13.8 mph 19.6 mph N/A   Clear
4:55 PM 80.6 °F 80.5 °F 55.4 °F 42% 29.98 in 10.0 mi South 9.2 mph 23.0 mph N/A   Clear
5:15 PM 78.8 °F - 57.2 °F 47% 29.98 in 10.0 mi South 12.7 mph 16.1 mph N/A   Clear
5:35 PM 77.0 °F - 55.4 °F 47% 29.99 in 10.0 mi SSE 8.1 mph - N/A   Clear
5:55 PM 75.2 °F - 55.4 °F 50% 29.99 in 10.0 mi SSE 5.8 mph - N/A   Clear
6:15 PM 75.2 °F - 55.4 °F 50% 29.99 in 10.0 mi SSE 5.8 mph - N/A   Clear
6:35 PM 73.4 °F - 55.4 °F 53% 30.00 in 10.0 mi SSE 6.9 mph - N/A   Clear
6:55 PM 73.4 °F - 55.4 °F 53% 30.00 in 10.0 mi SSE 4.6 mph - N/A   Clear
7:15 PM 73.4 °F - 55.4 °F 53% 30.01 in 10.0 mi SSE 5.8 mph - N/A   Clear
7:35 PM 71.6 °F - 55.4 °F 57% 30.01 in 10.0 mi SSE 6.9 mph - N/A   Clear
7:55 PM 73.4 °F - 57.2 °F 57% 30.02 in 10.0 mi SSE 9.2 mph - N/A   Clear
8:15 PM 71.6 °F - 57.2 °F 60% 30.03 in 10.0 mi SSE 8.1 mph - N/A   Clear
8:35 PM 71.6 °F - 55.4 °F 57% 30.03 in 10.0 mi SSE 8.1 mph - N/A   Clear
8:55 PM 71.6 °F - 55.4 °F 57% 30.03 in 10.0 mi SSE 9.2 mph - N/A   Clear
9:35 PM 71.6 °F - 55.4 °F 57% 30.04 in 10.0 mi SSE 9.2 mph 16.1 mph N/A   Clear
9:55 PM 69.8 °F - 57.2 °F 64% 30.04 in 10.0 mi South 6.9 mph - N/A   Clear
10:15 PM 69.8 °F - 57.2 °F 64% 30.05 in 10.0 mi South 11.5 mph - N/A   Clear
10:55 PM 69.8 °F - 60.8 °F 73% 30.05 in 10.0 mi South 10.4 mph - N/A   Clear
11:15 PM 68.0 °F - 60.8 °F 78% 30.05 in 10.0 mi South 11.5 mph 16.1 mph N/A   Clear
11:35 PM 68.0 °F - 60.8 °F 78% 30.05 in 10.0 mi SSE 11.5 mph 17.3 mph N/A   Clear
11:55 PM 68.0 °F - 60.8 °F 78% 30.05 in 10.0 mi SSE 8.1 mph - N/A   Clear